Location: Arrien
(43.3167°N, 0.1500°W)
Time: 05:05:21
(UTC+00:00)

Cosmos 1048 Rocket - Pass Details

Date: 15 October 2021
Orbit: 743 x 791 km, 74.0° (Epoch: 02 December)

Event Time Altitude Azimuth Distance (km) Brightness Sun altitude
Rises 17:49:21 0° 343° (NNW) 3,297 7.4 -6.6°
Reaches altitude 10° 17:51:50 10° 348° (NNW) 2,361 6.6 -7.0°
Maximum altitude 17:57:05 53° 66° (ENE) 960 4.2 -8.0°
Drops below altitude 10° 18:02:15 10° 143° (SE) 2,324 6.2 -8.9°
Sets 18:04:40 0° 148° (SSE) 3,240 7.0 -9.4°
